Time,TemperatureF,DewpointF,PressureIn,WindDirection,WindDirectionDegrees,WindSpeedMPH,WindSpeedGustMPH,Humidity,HourlyPrecipIn,Conditions,Clouds,dailyrainin,SoftwareType,DateUTC
2013-02-14 00:03:00,31.2,31.0,29.69,SSW,195,6.0,7.0,97,0.00,,,0.00,weatherlink.com 1.10,2013-02-14 06:03:00,
2013-02-14 00:18:00,31.2,31.0,29.70,SSW,204,4.0,8.0,97,0.00,,,0.00,weatherlink.com 1.10,2013-02-14 06:18:00,
2013-02-14 00:34:00,31.2,31.0,29.71,SSW,201,10.0,10.0,97,0.00,,,0.00,weatherlink.com 1.10,2013-02-14 06:34:00,
2013-02-14 00:49:00,31.3,31.0,29.71,SSW,200,7.0,11.0,97,0.00,,,0.00,weatherlink.com 1.10,2013-02-14 06:49:00,
2013-02-14 01:04:00,31.2,31.0,29.73,SW,217,9.0,12.0,97,0.00,,,0.00,weatherlink.com 1.10,2013-02-14 07:04:00,
2013-02-14 01:19:00,30.5,30.0,29.74,SSW,200,7.0,11.0,97,0.00,,,0.00,weatherlink.com 1.10,2013-02-14 07:19:00,
2013-02-14 01:34:00,29.8,29.0,29.75,SSW,203,6.0,10.0,97,0.00,,,0.00,weatherlink.com 1.10,2013-02-14 07:34:00,
2013-02-14 01:49:00,29.0,28.0,29.75,South,187,7.0,10.0,97,0.00,,,0.00,weatherlink.com 1.10,2013-02-14 07:49:00,
2013-02-14 02:04:00,28.6,28.0,29.76,SSW,198,4.0,8.0,97,0.00,,,0.00,weatherlink.com 1.10,2013-02-14 08:04:00,
2013-02-14 02:19:00,28.3,28.0,29.77,South,182,2.0,6.0,97,0.00,,,0.00,weatherlink.com 1.10,2013-02-14 08:19:00,
2013-02-14 02:34:00,28.2,28.0,29.77,SSE,167,3.0,5.0,97,0.00,,,0.00,weatherlink.com 1.10,2013-02-14 08:34:00,
2013-02-14 02:49:00,27.9,27.0,29.79,SSE,163,3.0,6.0,97,0.00,,,0.00,weatherlink.com 1.10,2013-02-14 08:49:00,
2013-02-14 03:04:00,27.7,27.0,29.80,SSE,160,3.0,7.0,97,0.00,,,0.00,weatherlink.com 1.10,2013-02-14 09:04:00,
2013-02-14 03:19:00,27.7,27.0,29.80,SSE,159,4.0,6.0,97,0.00,,,0.00,weatherlink.com 1.10,2013-02-14 09:19:00,
2013-02-14 03:34:00,27.5,27.0,29.81,SSE,167,3.0,5.0,97,0.00,,,0.00,weatherlink.com 1.10,2013-02-14 09:34:00,
2013-02-14 03:49:00,27.0,26.0,29.81,SSE,166,3.0,5.0,96,0.00,,,0.00,weatherlink.com 1.10,2013-02-14 09:49:00,
2013-02-14 04:04:00,26.5,26.0,29.82,SSE,155,3.0,6.0,96,0.00,,,0.00,weatherlink.com 1.10,2013-02-14 10:04:00,
2013-02-14 04:20:00,26.3,25.0,29.82,SE,136,5.0,6.0,96,0.00,,,0.00,weatherlink.com 1.10,2013-02-14 10:20:00,
2013-02-14 04:35:00,25.8,25.0,29.83,SSE,147,3.0,5.0,95,0.00,,,0.00,weatherlink.com 1.10,2013-02-14 10:35:00,
2013-02-14 04:50:00,25.2,24.0,29.83,SE,134,0.0,3.0,95,0.00,,,0.00,weatherlink.com 1.10,2013-02-14 10:50:00,
2013-02-14 05:05:00,24.8,24.0,29.84,SE,124,1.0,3.0,95,0.00,,,0.00,weatherlink.com 1.10,2013-02-14 11:05:00,
2013-02-14 05:19:00,24.4,23.0,29.84,East,101,1.0,3.0,95,0.00,,,0.00,weatherlink.com 1.10,2013-02-14 11:19:00,
2013-02-14 05:34:00,23.6,22.0,29.86,ESE,111,1.0,3.0,95,0.00,,,0.00,weatherlink.com 1.10,2013-02-14 11:34:00,
2013-02-14 05:49:00,23.6,22.0,29.86,SE,132,1.0,3.0,95,0.00,,,0.00,weatherlink.com 1.10,2013-02-14 11:49:00,
2013-02-14 06:05:00,24.0,23.0,29.86,East,96,1.0,3.0,96,0.00,,,0.00,weatherlink.com 1.10,2013-02-14 12:05:00,
2013-02-14 06:20:00,24.2,23.0,29.87,ESE,115,1.0,2.0,95,0.00,,,0.00,weatherlink.com 1.10,2013-02-14 12:20:00,
2013-02-14 06:35:00,23.8,23.0,29.88,SE,135,4.0,4.0,95,0.00,,,0.00,weatherlink.com 1.10,2013-02-14 12:35:00,
2013-02-14 06:50:00,23.6,22.0,29.88,SE,128,2.0,6.0,95,0.00,,,0.00,weatherlink.com 1.10,2013-02-14 12:50:00,
2013-02-14 07:05:00,23.6,22.0,29.89,SSE,150,3.0,6.0,95,0.00,,,0.00,weatherlink.com 1.10,2013-02-14 13:05:00,
2013-02-14 07:20:00,23.6,22.0,29.89,SE,145,3.0,5.0,95,0.00,,,0.00,weatherlink.com 1.10,2013-02-14 13:20:00,
2013-02-14 07:35:00,23.7,23.0,29.90,SSE,152,4.0,6.0,95,0.00,,,0.00,weatherlink.com 1.10,2013-02-14 13:35:00,
2013-02-14 07:50:00,24.1,23.0,29.90,SSE,153,5.0,8.0,94,0.00,,,0.00,weatherlink.com 1.10,2013-02-14 13:50:00,
2013-02-14 08:05:00,24.2,23.0,29.90,SE,133,3.0,6.0,94,0.00,,,0.00,weatherlink.com 1.10,2013-02-14 14:05:00,
2013-02-14 08:20:00,23.9,22.0,29.91,SE,132,3.0,7.0,93,0.00,,,0.00,weatherlink.com 1.10,2013-02-14 14:20:00,
2013-02-14 08:35:00,23.9,22.0,29.92,SE,133,2.0,7.0,93,0.00,,,0.00,weatherlink.com 1.10,2013-02-14 14:35:00,
2013-02-14 08:50:00,23.9,22.0,29.93,SE,134,3.0,7.0,92,0.00,,,0.00,weatherlink.com 1.10,2013-02-14 14:50:00,
2013-02-14 09:09:00,23.9,22.0,29.93,South,177,5.0,8.0,92,0.00,,,0.00,weatherlink.com 1.10,2013-02-14 15:09:00,
2013-02-14 09:20:00,24.3,22.0,29.93,ESE,120,4.0,8.0,91,0.00,,,0.00,weatherlink.com 1.10,2013-02-14 15:20:00,
2013-02-14 09:35:00,24.2,22.0,29.94,SE,124,7.0,9.0,91,0.00,,,0.00,weatherlink.com 1.10,2013-02-14 15:35:00,
2013-02-14 09:51:00,24.3,22.0,29.95,SE,136,7.0,12.0,90,0.00,,,0.00,weatherlink.com 1.10,2013-02-14 15:51:00,
2013-02-14 10:05:00,23.7,21.0,29.95,SSE,156,7.0,14.0,89,0.00,,,0.00,weatherlink.com 1.10,2013-02-14 16:05:00,
2013-02-14 10:20:00,23.8,21.0,29.96,SSE,152,8.0,13.0,89,0.00,,,0.00,weatherlink.com 1.10,2013-02-14 16:20:00,
2013-02-14 10:35:00,23.6,21.0,29.97,South,181,9.0,13.0,89,0.00,,,0.00,weatherlink.com 1.10,2013-02-14 16:35:00,
2013-02-14 10:50:00,23.6,21.0,29.97,SE,143,8.0,15.0,88,0.00,,,0.00,weatherlink.com 1.10,2013-02-14 16:50:00,
2013-02-14 11:05:00,23.7,21.0,29.98,SSE,150,7.0,12.0,88,0.00,,,0.00,weatherlink.com 1.10,2013-02-14 17:05:00,
2013-02-14 11:20:00,23.4,20.0,29.98,SE,129,8.0,15.0,87,0.00,,,0.00,weatherlink.com 1.10,2013-02-14 17:20:00,
2013-02-14 11:36:00,23.3,20.0,29.99,SSE,162,8.0,13.0,88,0.00,,,0.00,weatherlink.com 1.10,2013-02-14 17:36:00,
2013-02-14 11:50:00,23.3,20.0,30.00,SSE,159,5.0,11.0,87,0.00,,,0.00,weatherlink.com 1.10,2013-02-14 17:50:00,
2013-02-14 12:06:00,23.6,20.0,30.00,SE,134,6.0,10.0,87,0.00,,,0.00,weatherlink.com 1.10,2013-02-14 18:06:00,
2013-02-14 12:21:00,24.6,21.0,30.00,SE,124,10.0,12.0,86,0.00,,,0.00,weatherlink.com 1.10,2013-02-14 18:21:00,
2013-02-14 12:36:00,25.4,21.0,30.00,SSE,163,5.0,13.0,82,0.00,,,0.00,weatherlink.com 1.10,2013-02-14 18:36:00,
2013-02-14 12:51:00,25.7,20.0,30.00,SE,135,8.0,14.0,79,0.00,,,0.00,weatherlink.com 1.10,2013-02-14 18:51:00,
2013-02-14 13:06:00,25.7,20.0,30.00,SE,136,11.0,15.0,78,0.00,,,0.00,weatherlink.com 1.10,2013-02-14 19:06:00,
2013-02-14 13:21:00,25.7,19.0,30.00,SE,138,11.0,19.0,76,0.00,,,0.00,weatherlink.com 1.10,2013-02-14 19:21:00,
2013-02-14 13:36:00,25.7,18.0,30.01,SSE,154,14.0,16.0,72,0.00,,,0.00,weatherlink.com 1.10,2013-02-14 19:36:00,
2013-02-14 13:51:00,25.5,17.0,30.01,SSE,162,8.0,17.0,69,0.00,,,0.00,weatherlink.com 1.10,2013-02-14 19:51:00,
2013-02-14 14:06:00,25.7,16.0,30.02,SE,135,13.0,20.0,68,0.00,,,0.00,weatherlink.com 1.10,2013-02-14 20:06:00,
2013-02-14 14:21:00,25.7,15.0,30.03,SSE,153,13.0,21.0,64,0.00,,,0.00,weatherlink.com 1.10,2013-02-14 20:21:00,
2013-02-14 14:36:00,25.8,15.0,30.03,SSE,153,9.0,20.0,63,0.00,,,0.00,weatherlink.com 1.10,2013-02-14 20:36:00,
2013-02-14 14:51:00,25.7,13.0,30.04,ESE,118,16.0,19.0,60,0.00,,,0.00,weatherlink.com 1.10,2013-02-14 20:51:00,
2013-02-14 15:06:00,25.6,13.0,30.05,SE,146,9.0,20.0,58,0.00,,,0.00,weatherlink.com 1.10,2013-02-14 21:06:00,
2013-02-14 15:21:00,25.3,12.0,30.06,SSE,166,14.0,23.0,57,0.00,,,0.00,weatherlink.com 1.10,2013-02-14 21:21:00,
2013-02-14 15:36:00,25.0,11.0,30.07,SE,141,13.0,19.0,55,0.00,,,0.00,weatherlink.com 1.10,2013-02-14 21:36:00,
2013-02-14 15:51:00,25.0,10.0,30.08,SSE,166,7.0,19.0,54,0.00,,,0.00,weatherlink.com 1.10,2013-02-14 21:51:00,
2013-02-14 16:06:00,24.9,9.0,30.09,SE,146,13.0,17.0,52,0.00,,,0.00,weatherlink.com 1.10,2013-02-14 22:06:00,
2013-02-14 16:21:00,24.8,10.0,30.10,SSE,155,8.0,14.0,53,0.00,,,0.00,weatherlink.com 1.10,2013-02-14 22:21:00,
2013-02-14 16:36:00,24.2,10.0,30.11,SSE,164,6.0,15.0,54,0.00,,,0.00,weatherlink.com 1.10,2013-02-14 22:36:00,
2013-02-14 16:52:00,23.6,8.0,30.12,SSE,150,13.0,17.0,52,0.00,,,0.00,weatherlink.com 1.10,2013-02-14 22:52:00,
2013-02-14 17:06:00,23.5,8.0,30.13,SE,134,8.0,17.0,51,0.00,,,0.00,weatherlink.com 1.10,2013-02-14 23:06:00,
2013-02-14 17:21:00,23.1,8.0,30.14,SE,146,8.0,17.0,53,0.00,,,0.00,weatherlink.com 1.10,2013-02-14 23:21:00,
2013-02-14 17:36:00,22.5,8.0,30.15,SE,146,9.0,17.0,53,0.00,,,0.00,weatherlink.com 1.10,2013-02-14 23:36:00,
2013-02-14 17:52:00,21.9,8.0,30.16,SSE,152,7.0,11.0,55,0.00,,,0.00,weatherlink.com 1.10,2013-02-14 23:52:00,
2013-02-14 18:07:00,21.5,8.0,30.16,South,190,6.0,13.0,56,0.00,,,0.00,weatherlink.com 1.10,2013-02-15 00:07:00,
2013-02-14 18:22:00,21.4,8.0,30.17,SSE,167,5.0,14.0,56,0.00,,,0.00,weatherlink.com 1.10,2013-02-15 00:22:00,
2013-02-14 18:37:00,21.4,7.0,30.18,SSW,193,7.0,11.0,55,0.00,,,0.00,weatherlink.com 1.10,2013-02-15 00:37:00,
2013-02-14 18:52:00,21.2,7.0,30.19,South,170,7.0,12.0,55,0.00,,,0.00,weatherlink.com 1.10,2013-02-15 00:52:00,
2013-02-14 19:07:00,20.7,7.0,30.19,SSE,167,8.0,10.0,56,0.00,,,0.00,weatherlink.com 1.10,2013-02-15 01:07:00,
2013-02-14 19:22:00,19.8,7.0,30.20,SE,124,3.0,9.0,58,0.00,,,0.00,weatherlink.com 1.10,2013-02-15 01:22:00,
2013-02-14 19:37:00,19.7,7.0,30.21,SE,136,6.0,10.0,59,0.00,,,0.00,weatherlink.com 1.10,2013-02-15 01:37:00,
2013-02-14 19:52:00,19.4,7.0,30.22,SE,145,5.0,11.0,58,0.00,,,0.00,weatherlink.com 1.10,2013-02-15 01:52:00,
2013-02-14 20:07:00,19.2,6.0,30.22,SSE,167,4.0,9.0,57,0.00,,,0.00,weatherlink.com 1.10,2013-02-15 02:07:00,
2013-02-14 20:22:00,18.6,6.0,30.23,SSE,158,5.0,8.0,58,0.00,,,0.00,weatherlink.com 1.10,2013-02-15 02:22:00,
2013-02-14 20:37:00,18.2,7.0,30.24,SSE,165,4.0,9.0,61,0.00,,,0.00,weatherlink.com 1.10,2013-02-15 02:37:00,
2013-02-14 20:52:00,17.3,7.0,30.24,SE,139,7.0,8.0,64,0.00,,,0.00,weatherlink.com 1.10,2013-02-15 02:52:00,
2013-02-14 21:07:00,16.6,6.0,30.25,SE,127,4.0,8.0,64,0.00,,,0.00,weatherlink.com 1.10,2013-02-15 03:07:00,
2013-02-14 21:22:00,16.0,7.0,30.26,SE,144,3.0,7.0,67,0.00,,,0.00,weatherlink.com 1.10,2013-02-15 03:22:00,
2013-02-14 21:37:00,15.5,7.0,30.26,SE,131,5.0,6.0,70,0.00,,,0.00,weatherlink.com 1.10,2013-02-15 03:37:00,
2013-02-14 21:53:00,15.1,7.0,30.26,SE,127,3.0,8.0,70,0.00,,,0.00,weatherlink.com 1.10,2013-02-15 03:53:00,
2013-02-14 22:07:00,14.4,7.0,30.26,SSE,149,4.0,9.0,71,0.00,,,0.00,weatherlink.com 1.10,2013-02-15 04:07:00,
2013-02-14 22:22:00,14.2,6.0,30.27,SE,128,5.0,11.0,71,0.00,,,0.00,weatherlink.com 1.10,2013-02-15 04:22:00,
2013-02-14 22:38:00,13.9,6.0,30.27,SSE,147,7.0,13.0,70,0.00,,,0.00,weatherlink.com 1.10,2013-02-15 04:38:00,
2013-02-14 22:53:00,13.0,5.0,30.28,ESE,120,6.0,9.0,71,0.00,,,0.00,weatherlink.com 1.10,2013-02-15 04:53:00,
2013-02-14 23:08:00,12.0,4.0,30.28,SE,127,7.0,9.0,71,0.00,,,0.00,weatherlink.com 1.10,2013-02-15 05:08:00,
2013-02-14 23:23:00,11.3,3.0,30.28,SE,127,3.0,9.0,69,0.00,,,0.00,weatherlink.com 1.10,2013-02-15 05:23:00,
2013-02-14 23:38:00,11.0,2.0,30.28,SE,127,8.0,11.0,66,0.00,,,0.00,weatherlink.com 1.10,2013-02-15 05:38:00,
2013-02-14 23:53:00,10.5,1.0,30.29,SE,124,3.0,9.0,66,0.00,,,0.00,weatherlink.com 1.10,2013-02-15 05:53:00,